Theta_e
300 300 298 298 296 295 294 295 294 294 294 294 295 294 294 294 293 293 293 293 292 292 292 292 292 292 292 292 292 292 292 292 292 292 293 293 295 298 303 306 309 311 314 316 317 318 319 320 321 320 320 320 319 318 317 317 319 319 319 319 320 320 319 318 318 319 319 319 319 319 319 319 319 319 320 321 321 322 322 322 323 324 326 327 328
299 298 297 296 294 294 293 293 293 293 294 294 293 294 293 293 292 293 292 292 292 292 292 292 291 291 291 292 291 291 292 292 292 292 293 293 294 295 298 303 306 309 310 312 314 315 316 317 319 319 319 319 318 317 316 316 318 318 317 317 318 319 318 318 318 318 318 318 318 317 318 318 318 319 320 320 320 320 321 321 322 323 324 324 325
298 296 296 295 294 293 293 293 293 293 293 293 293 293 293 293 293 292 292 292 292 292 291 291 291 291 291 291 291 291 291 292 292 292 292 293 293 294 295 298 302 304 307 309 311 313 314 315 316 318 318 317 318 317 316 316 317 316 316 316 317 318 317 317 318 318 317 317 316 316 317 317 318 318 319 319 319 319 320 320 321 322 322 323 323
297 296 295 294 293 292 292 292 293 293 293 293 293 292 292 292 292 292 292 292 291 290 291 291 290 290 291 291 291 291 291 292 292 292 292 292 292 293 294 295 297 300 302 307 310 310 311 312 313 314 314 314 314 315 316 316 316 315 315 316 317 317 316 316 317 317 316 316 316 316 317 317 318 318 318 318 318 319 319 320 320 320 321 321 321
296 295 295 294 293 292 291 292 292 292 292 293 293 292 292 291 291 291 291 291 290 290 290 290 290 290 290 290 291 291 291 291 291 291 292 292 292 292 293 294 295 296 298 301 305 307 309 309 309 309 310 310 312 313 315 315 314 314 315 316 316 316 316 316 316 315 315 315 316 316 316 317 317 317 317 318 318 318 318 318 319 319 319 320 320
295 295 295 293 293 292 292 291 291 292 292 292 292 291 291 291 291 290 290 290 290 291 290 290 289 289 290 290 290 290 290 291 291 291 292 292 292 293 292 293 294 295 295 296 300 303 305 306 305 306 307 308 310 312 313 313 312 312 314 315 314 315 314 315 315 315 314 315 315 315 315 315 316 316 317 316 316 317 317 317 317 318 318 319 319
295 294 293 293 292 292 291 291 291 292 291 292 291 291 291 291 290 290 290 289 290 290 290 290 290 289 290 290 290 290 290 290 291 291 292 292 292 292 292 293 293 294 294 294 295 299 301 302 303 304 305 306 307 309 311 311 310 311 313 314 313 313 313 313 313 313 313 313 313 313 314 315 315 315 315 315 315 315 315 315 316 316 317 317 318
294 294 293 293 292 292 291 290 291 291 291 291 291 290 290 290 290 290 289 289 290 290 289 289 289 289 289 289 290 290 290 290 291 291 291 291 292 292 292 293 293 293 293 293 293 296 298 298 299 300 302 303 304 306 308 308 308 310 312 313 313 312 311 312 313 313 312 312 312 312 313 313 313 314 314 314 314 314 315 314 314 315 316 316 317
294 294 293 292 292 292 291 290 291 291 290 290 290 291 290 290 289 288 290 289 289 290 289 289 289 289 288 289 289 290 290 291 291 290 291 291 291 292 292 292 292 291 292 292 293 293 294 295 295 296 297 299 301 304 305 305 306 308 311 311 311 311 310 311 311 311 311 311 311 311 312 313 313 313 313 313 313 313 314 314 314 314 315 315 316
294 294 293 293 293 292 290 290 290 290 290 290 290 290 290 290 289 288 288 288 289 289 289 288 289 289 288 288 288 289 290 291 291 290 290 290 291 291 291 291 291 291 291 292 292 292 292 292 292 292 293 296 299 301 303 302 303 306 309 310 310 310 310 310 310 310 310 310 310 310 311 311 311 311 312 311 311 312 313 313 314 314 315 315 315
293 293 293 292 292 291 290 289 290 290 289 289 289 289 289 289 289 287 287 287 289 289 289 289 289 288 288 287 288 288 289 290 289 289 289 291 291 290 291 290 290 291 291 291 291 292 291 291 290 290 290 292 295 297 299 299 299 303 306 308 308 309 309 309 309 309 309 309 309 309 309 308 309 309 310 311 311 312 311 312 312 313 313 314 314
293 293 293 292 291 290 290 289 289 289 289 288 288 288 288 287 287 288 287 287 288 288 288 288 288 288 287 287 288 289 289 289 288 289 289 289 290 290 290 289 290 291 291 291 291 291 291 290 290 289 290 290 292 293 295 296 295 299 303 305 307 309 309 308 308 308 308 308 308 307 307 307 307 308 309 310 310 310 310 310 311 312 312 313 313
293 293 292 292 291 290 290 289 289 289 289 289 289 289 289 288 287 288 288 287 287 287 287 288 289 287 287 287 287 289 290 288 288 288 288 288 289 289 290 290 290 291 290 291 290 290 290 290 289 289 289 289 289 289 291 292 292 297 301 303 305 308 309 308 308 307 307 307 307 307 307 307 307 307 308 308 309 309 310 310 311 311 312 312 312
293 293 292 292 290 289 289 288 288 289 289 290 289 289 288 287 287 286 287 287 287 287 286 288 289 290 287 286 287 287 289 287 287 287 288 288 288 289 290 290 289 289 290 289 289 290 289 289 289 288 288 288 288 288 289 290 290 294 297 299 303 306 307 307 307 307 306 306 306 306 306 306 306 307 307 307 308 309 309 310 310 311 311 312 312
293 292 292 291 290 289 289 289 288 289 288 287 288 287 287 286 287 287 285 286 288 287 286 288 291 289 291 289 287 286 287 286 287 287 288 288 288 289 289 290 289 289 289 289 288 288 288 288 288 288 288 288 288 288 288 288 289 290 292 293 297 302 305 306 306 306 305 305 305 305 305 305 305 305 306 307 307 308 308 309 309 310 311 311 311
293 292 292 291 291 290 289 289 288 289 289 287 287 287 287 286 286 287 288 285 285 286 287 285 287 290 288 290 287 287 287 287 287 287 286 286 287 287 288 288 288 288 288 288 288 287 287 288 287 287 287 287 287 287 288 288 288 288 288 289 293 298 301 304 305 304 304 305 305 304 305 305 305 305 306 306 306 307 307 308 308 309 309 310 310
293 292 292 291 291 290 289 289 288 288 288 288 287 287 287 287 287 287 287 287 286 287 286 285 285 286 292 284 284 285 290 289 285 286 284 285 286 287 288 288 287 287 287 287 287 287 287 287 287 287 287 287 287 287 287 288 288 289 288 289 293 296 296 300 302 302 303 303 304 303 303 304 304 304 305 306 306 306 307 307 307 308 308 309 310
292 292 292 292 291 291 290 289 288 288 288 288 287 287 287 286 286 287 287 289 289 286 286 286 286 286 286 288 293 298 289 286 287 287 284 286 286 286 286 287 287 286 286 286 286 286 286 286 286 286 286 286 286 287 287 287 288 288 289 290 294 296 296 296 298 300 301 301 302 302 302 303 303 304 304 304 304 305 306 306 307 307 308 308 309
292 292 292 292 291 290 290 289 288 288 288 288 287 287 287 287 287 286 287 288 288 287 287 285 284 285 286 286 287 285 289 288 287 286 287 285 284 284 285 286 285 285 285 286 286 286 286 285 286 286 286 286 286 286 287 287 287 287 288 290 294 295 295 295 295 296 298 299 300 301 302 302 302 303 303 303 303 304 305 306 306 307 307 308 308
292 291 292 291 291 290 290 289 288 288 288 287 287 287 287 287 287 287 287 287 288 289 288 286 285 285 285 285 285 284 285 287 289 291 290 287 285 284 285 285 284 285 285 286 285 285 285 285 285 285 285 286 286 286 286 287 287 287 287 289 292 294 295 294 294 294 295 295 298 300 301 301 301 301 302 302 303 304 305 305 305 306 306 307 307
291 291 291 291 290 290 289 289 288 287 287 287 287 287 287 286 286 285 285 285 286 289 289 286 287 287 283 283 284 284 284 285 284 288 289 288 287 285 286 285 285 286 285 285 285 285 285 285 285 285 286 286 286 286 286 286 286 286 287 288 291 292 293 293 293 293 293 293 295 297 299 300 300 301 302 302 302 303 304 304 305 305 306 306 306
290 290 290 290 290 290 289 288 288 288 287 287 287 287 287 287 286 286 286 286 286 286 288 288 287 287 287 286 285 283 285 284 285 284 284 287 288 286 286 286 285 286 283 284 284 284 284 284 284 285 285 285 285 285 285 286 286 287 286 287 289 290 290 291 292 292 292 293 294 295 297 298 299 300 300 301 302 303 303 304 304 305 305 305 306
289 289 290 290 290 289 289 288 288 288 287 287 287 286 286 286 286 286 286 286 285 285 287 288 286 286 286 286 287 286 287 284 284 284 286 283 282 283 282 283 285 286 285 282 283 284 284 284 284 284 285 285 285 285 285 285 284 286 286 287 288 288 290 291 291 291 291 293 293 294 294 295 296 297 299 299 301 302 302 303 303 304 304 304 305
289 289 288 289 289 289 288 288 288 288 287 287 287 286 286 286 286 285 285 286 286 285 286 286 285 285 285 286 287 288 289 289 287 286 286 287 286 285 284 282 281 283 284 283 284 283 284 284 284 285 285 285 285 285 285 285 285 285 287 286 287 288 289 289 289 290 291 292 292 293 294 294 295 295 296 298 299 301 302 302 302 303 304 304 304
288 288 288 288 288 288 288 287 287 287 287 287 287 287 286 286 285 285 285 285 284 285 285 286 285 284 285 285 286 287 288 287 287 286 287 287 287 284 282 282 283 283 282 281 282 283 283 283 284 284 284 285 285 285 285 285 285 284 285 286 286 286 286 286 287 289 290 291 291 292 293 293 294 294 296 297 298 300 301 301 301 302 303 303 303
288 288 289 289 288 288 288 288 288 288 287 287 287 286 286 285 285 285 285 285 285 285 285 286 285 286 286 285 284 285 286 285 285 286 285 284 283 284 282 279 279 280 280 280 281 281 283 283 284 284 284 284 284 284 284 285 285 285 286 284 284 283 284 286 288 289 290 290 291 291 291 291 292 293 293 296 297 298 299 299 300 301 301 302 302
289 289 290 289 288 289 288 288 288 287 287 287 286 286 286 285 285 285 285 285 285 284 284 285 283 284 285 284 284 284 284 283 284 285 285 286 286 284 283 281 279 278 279 279 280 280 284 282 283 283 283 284 283 283 284 284 284 285 283 284 283 282 283 285 288 288 289 289 290 290 291 291 291 292 293 293 294 295 296 297 298 299 299 300 300
290 290 289 289 288 288 288 287 287 287 286 286 286 285 285 284 284 284 284 284 283 284 284 284 284 284 284 284 284 283 283 282 283 284 284 286 286 285 285 284 283 282 280 279 280 281 282 282 282 282 283 283 283 283 283 283 285 284 281 283 282 282 282 284 286 287 289 289 289 290 290 290 291 291 291 292 292 293 293 294 295 295 296 296 296
290 289 289 289 288 288 287 287 287 287 286 286 285 285 285 284 284 284 283 284 283 283 283 283 284 284 283 283 283 284 282 282 282 283 283 283 284 284 285 285 285 283 282 280 281 281 281 281 280 281 281 282 282 283 283 283 282 283 283 282 282 281 281 283 285 287 288 288 289 289 289 290 290 291 291 291 292 293 294 294 294 295 295 296 296
288 288 288 287 287 287 287 287 287 286 285 285 285 284 284 283 284 283 284 283 283 283 283 283 283 283 283 282 282 282 282 281 282 282 282 282 282 282 283 284 284 283 283 281 281 282 281 280 281 281 280 281 282 282 282 281 281 282 282 282 281 281 281 283 284 285 286 287 287 288 289 289 290 290 290 291 292 293 294 294 294 294 295 295 296
287 287 287 287 287 286 286 286 286 286 285 284 284 283 283 283 283 283 283 282 282 282 282 282 282 282 281 281 281 281 281 281 281 281 281 281 281 281 282 282 282 284 282 282 281 281 281 281 281 281 281 281 281 281 281 281 281 281 281 281 281 281 281 282 282 284 285 286 286 287 288 289 289 289 290 290 291 292 293 293 293 293 294 295 296
287 287 286 286 286 286 286 286 285 285 284 284 283 283 283 282 282 282 282 281 281 281 281 282 281 281 281 280 280 280 280 280 280 280 280 281 281 280 280 281 281 280 281 281 280 281 279 280 281 280 280 281 281 280 280 281 281 280 281 280 280 280 280 281 281 282 283 285 286 287 288 288 289 289 289 290 291 291 291 292 292 293 293 294 294
286 286 286 286 286 286 285 285 285 284 284 283 283 283 282 282 282 282 281 280 280 281 281 280 281 280 280 280 280 280 280 280 280 280 280 280 280 280 280 280 279 279 279 279 279 279 278 279 280 280 280 280 280 281 279 279 279 280 280 280 280 280 280 280 281 281 283 284 286 286 287 288 289 289 289 290 290 290 291 291 292 292 292 293 293
286 286 286 286 286 286 285 285 285 284 284 283 283 282 281 281 281 281 281 280 280 280 280 280 280 280 280 280 280 279 279 279 279 279 279 279 279 278 278 278 278 278 279 278 279 279 278 278 277 279 279 280 278 280 278 278 278 279 279 279 280 280 280 280 280 281 282 284 285 286 287 288 288 289 289 289 289 290 290 291 290 290 291 292 292
286 286 286 285 285 285 285 285 285 284 284 283 283 282 282 281 281 281 281 280 280 280 279 279 279 279 279 279 279 279 278 278 279 279 279 278 278 278 278 278 278 278 278 279 278 277 277 277 278 277 277 278 277 278 278 278 278 278 278 278 279 280 281 281 280 281 282 284 285 286 287 287 288 288 288 289 289 289 289 290 290 290 290 290 291
285 285 286 286 285 285 284 284 284 284 284 283 283 282 282 282 282 281 281 281 280 280 280 279 279 279 279 278 278 278 278 277 278 278 278 278 277 277 277 277 277 277 277 278 278 278 277 276 276 276 277 276 277 278 277 277 277 277 278 279 280 279 280 280 280 281 282 284 285 285 286 286 287 287 287 287 287 288 288 289 289 289 289 290 290
285 285 285 285 285 284 284 284 284 284 284 284 283 283 282 282 282 282 281 281 280 280 280 280 280 279 279 279 279 278 278 277 277 277 277 277 277 277 277 277 277 277 277 277 276 277 276 275 275 276 276 276 276 277 277 276 277 278 278 278 279 279 280 280 281 281 282 283 284 284 285 285 286 286 286 286 287 287 288 288 289 289 289 289 289
285 285 285 284 285 284 284 284 284 284 284 284 283 283 283 282 282 282 282 281 281 280 281 281 280 280 279 279 279 278 277 277 277 277 277 277 277 277 276 276 276 276 276 276 276 275 275 275 275 274 275 274 275 275 277 277 277 277 278 278 279 279 279 279 280 281 281 281 281 281 282 283 283 284 285 285 286 286 287 288 288 288 287 287 287
285 285 284 284 284 285 284 284 284 284 284 284 283 283 283 282 282 282 281 281 281 281 281 281 280 280 280 280 279 278 277 278 278 277 277 277 276 276 276 276 276 275 275 275 275 274 274 274 274 274 274 275 275 275 277 278 278 278 277 277 277 279 279 279 278 280 281 280 282 283 283 283 283 283 284 284 285 286 286 286 286 287 286 286 286
285 285 284 284 284 284 284 284 284 284 284 284 283 283 283 282 282 281 281 281 280 280 280 280 280 280 280 280 280 279 278 278 278 278 277 276 277 276 276 276 275 275 274 274 274 274 273 273 273 273 274 274 276 277 278 278 277 277 278 277 276 277 278 279 279 278 279 280 279 280 282 282 282 282 283 283 283 284 284 284 284 284 283 284 285
285 285 285 284 284 284 284 284 284 284 284 283 283 283 282 282 282 281 281 281 280 280 280 280 280 280 280 280 280 279 279 280 280 280 279 279 276 275 276 276 275 274 274 274 273 273 273 272 272 274 274 274 275 276 276 276 276 276 278 278 276 277 278 277 278 279 279 279 280 280 280 281 280 280 280 280 280 281 281 282 282 282 282 283 284
285 285 284 284 284 284 283 283 283 283 283 284 284 285 285 283 282 281 281 281 281 280 280 279 279 279 279 279 279 280 280 280 281 281 281 280 280 278 276 275 275 274 273 273 272 273 272 272 272 273 273 274 275 276 276 277 278 278 277 277 275 276 276 276 278 279 280 280 279 278 279 281 279 278 279 278 279 280 280 280 280 280 281 283 284
284 284 284 283 283 283 283 283 283 283 283 283 285 286 286 286 283 282 281 281 281 280 280 279 278 278 278 278 278 279 280 280 280 281 281 281 281 280 279 278 278 275 273 272 272 272 272 272 273 274 274 274 275 277 277 277 277 277 277 277 276 275 275 274 274 278 281 280 278 277 277 279 278 277 277 278 278 279 279 279 280 281 282 284 284
283 283 283 283 283 283 283 283 283 283 283 284 286 287 287 287 285 282 282 281 280 280 280 279 279 278 277 277 277 277 278 279 279 279 281 281 281 280 280 279 279 279 278 275 272 271 272 272 273 274 275 274 276 277 277 277 276 277 277 276 275 275 275 275 275 274 279 280 276 275 274 277 277 276 275 276 277 278 278 279 281 282 283 283 284
282 281 282 282 282 283 282 282 282 283 283 285 286 287 287 287 287 284 282 281 280 280 279 279 278 277 277 276 275 276 277 279 279 279 279 280 281 281 280 280 280 280 279 279 278 275 274 274 274 274 275 276 276 277 278 277 278 275 276 275 276 276 276 275 276 276 278 279 275 274 272 275 275 275 275 276 277 277 277 279 280 281 282 283 284
281 281 281 281 282 282 282 282 282 282 282 284 286 287 287 287 287 286 282 281 280 280 279 279 278 277 277 276 276 275 276 277 278 277 278 279 279 279 278 278 278 279 280 280 279 278 278 276 276 275 277 278 277 278 278 278 276 275 275 275 277 276 276 276 277 276 277 278 273 272 270 273 275 274 273 275 277 276 277 278 279 280 282 282 283
281 281 281 281 281 281 281 282 281 282 282 284 286 287 287 287 288 287 282 281 280 279 279 279 278 278 277 277 276 275 275 276 277 277 277 278 278 278 277 277 277 277 278 278 278 278 278 278 278 278 278 279 279 279 279 279 278 277 277 277 277 277 277 276 275 275 275 276 274 272 268 273 274 272 273 274 275 275 276 277 279 280 281 282 282
281 281 281 281 281 281 281 281 280 280 281 284 285 286 287 287 288 286 283 280 279 279 278 278 278 278 277 276 276 275 275 276 278 280 279 278 277 276 276 276 276 277 277 279 280 281 281 280 280 280 280 280 280 279 279 278 278 278 278 279 277 276 274 271 270 271 271 274 274 272 269 270 273 271 272 274 275 274 275 276 278 280 280 281 282
280 280 279 280 281 280 280 280 280 280 280 282 284 285 286 287 287 285 283 280 279 278 278 278 277 277 277 277 276 275 275 276 279 281 281 280 276 276 275 275 276 276 276 279 281 282 281 280 280 280 280 280 281 281 281 282 280 280 278 275 274 274 270 268 268 269 269 272 272 272 270 268 272 272 271 273 273 273 274 275 276 278 279 280 281
278 279 279 279 279 279 279 279 279 279 280 281 283 285 286 287 286 284 282 280 278 277 277 277 277 277 277 278 277 275 275 275 280 282 282 279 275 275 275 275 274 274 276 277 277 279 281 281 281 281 280 281 281 282 283 283 282 280 276 272 273 271 268 268 266 268 268 269 271 273 269 269 271 272 270 271 272 273 274 275 276 276 278 278 279
278 278 277 277 278 278 278 278 280 279 279 280 282 284 285 286 286 284 282 279 277 277 276 276 276 276 276 277 278 277 276 276 280 282 282 279 275 275 275 274 273 273 274 276 275 275 276 277 278 279 279 280 280 278 276 277 278 276 274 272 271 269 267 267 267 266 266 268 271 273 268 269 270 271 271 268 268 271 273 274 275 275 275 275 276
Wind_Speed
7 6 5 5 4 4 4 4 4 4 4 4 4 5 4 3 3 4 3 4 3 4 3 3 3 2 3 3 3 2 2 2 2 2 2 2 2 4 8 8 9 9 10 10 10 10 10 10 9 9 9 9 10 10 10 11 11 11 12 11 11 11 11 10 10 11 12 12 12 13 13 13 13 13 13 13 13 13 14 14 14 15 15 16 15
7 6 6 6 5 5 4 4 5 4 4 5 4 4 5 4 3 3 4 4 3 3 3 4 3 3 2 3 2 2 2 2 2 2 2 2 2 2 7 9 9 10 10 10 11 10 11 10 10 9 8 8 9 10 10 10 10 11 11 11 11 10 10 10 11 11 12 12 12 13 13 13 13 12 12 13 13 13 13 13 13 14 14 14 15
7 7 6 6 6 6 5 4 5 4 4 4 3 4 3 3 4 4 4 4 3 3 2 4 3 3 2 3 2 2 2 2 2 2 2 2 2 2 3 8 10 10 10 10 11 11 11 11 10 10 9 9 8 10 10 10 11 11 12 11 11 11 11 12 11 12 12 13 13 13 13 13 12 12 12 13 13 13 13 13 13 13 14 14 15
8 8 8 7 7 6 5 6 5 4 4 4 5 4 4 4 3 2 3 3 3 3 1 2 3 3 2 3 2 2 2 2 2 2 2 2 2 2 2 3 8 10 11 11 11 11 11 11 11 11 11 10 10 10 10 10 11 11 11 12 11 11 11 12 12 13 12 13 13 13 13 13 13 12 12 12 12 12 12 13 13 13 13 14 14
8 9 8 7 7 7 6 6 5 5 5 5 6 5 4 4 3 3 3 3 3 3 2 1 2 2 2 2 2 2 2 2 2 2 2 2 2 2 2 3 4 7 10 11 11 11 11 12 12 11 11 11 11 11 11 11 11 11 12 12 11 11 12 12 12 12 12 13 13 13 13 13 13 13 13 13 13 13 13 14 13 13 13 14 14
9 9 8 7 7 7 7 6 5 6 5 5 5 5 5 5 4 4 3 3 3 3 3 2 2 1 1 1 1 2 2 2 2 2 2 2 2 2 2 3 3 4 4 9 11 12 12 12 12 12 11 11 11 11 10 10 10 11 11 11 11 11 11 11 11 12 12 13 13 13 13 13 13 14 13 14 14 14 14 15 14 14 14 14 14
8 9 8 8 8 7 7 6 6 6 6 5 5 4 4 5 5 5 3 2 2 2 2 2 2 2 2 1 2 2 1 3 2 3 2 2 2 2 2 3 3 3 3 4 5 12 13 13 12 12 12 12 11 11 11 10 10 10 11 10 10 10 10 10 11 11 12 12 13 13 13 13 14 14 14 15 15 15 15 15 15 15 15 15 15
9 9 9 8 8 8 7 6 8 6 5 5 5 6 5 4 3 4 5 3 3 3 1 2 2 2 2 1 1 2 2 2 3 3 2 2 2 2 2 3 3 4 3 3 4 7 13 13 13 13 13 12 11 11 11 10 10 10 10 10 10 10 10 11 11 11 12 12 12 13 13 14 14 14 14 15 15 15 15 15 14 14 14 14 15
10 9 8 9 8 7 6 8 7 7 7 6 5 4 5 5 4 3 2 3 4 4 2 2 2 2 2 2 1 2 2 3 3 3 1 2 2 2 3 3 3 3 3 3 3 4 9 13 13 13 13 12 11 10 11 10 10 9 10 11 10 10 10 11 11 11 11 12 12 13 14 14 15 15 15 15 15 14 15 15 15 15 15 15 15
10 9 8 8 8 8 7 8 8 7 6 6 5 5 4 5 5 4 3 2 4 5 5 3 3 3 3 2 2 1 2 2 2 2 2 3 3 3 3 2 3 3 3 3 3 4 4 7 10 11 12 12 11 11 11 11 10 10 10 10 10 10 10 11 10 11 11 12 12 13 13 14 14 15 15 14 14 15 16 16 16 16 16 16 16
10 10 9 9 8 7 8 9 8 7 7 7 6 6 5 5 6 5 3 2 2 3 3 4 4 4 3 2 2 1 2 2 1 2 2 3 3 3 2 3 3 3 3 3 3 3 4 4 4 4 5 11 11 11 11 11 11 11 10 10 10 10 10 10 11 12 12 12 12 12 12 12 12 13 14 15 16 16 16 16 16 16 17 17 17
11 10 9 9 9 9 9 9 8 8 9 8 8 8 10 9 7 7 5 3 2 2 3 5 4 5 4 3 2 1 2 1 2 2 2 2 2 2 3 3 3 3 3 3 3 3 3 3 4 4 4 6 10 11 11 11 11 10 10 11 10 10 10 10 11 11 12 12 12 12 11 11 11 12 13 14 15 15 15 15 16 16 16 16 16
11 11 10 8 8 8 9 9 8 9 9 9 9 8 7 7 5 4 6 6 4 3 3 3 7 4 3 4 3 2 1 0 2 2 1 1 1 2 2 3 3 3 2 3 3 3 3 3 3 4 4 4 5 8 10 10 10 10 12 12 11 10 10 11 11 11 12 12 12 11 11 11 11 11 11 12 13 14 15 16 16 16 16 16 16
11 11 10 10 10 9 9 10 10 9 7 7 8 7 8 7 7 5 3 6 6 6 6 6 2 5 5 4 2 2 1 1 2 0 1 1 1 1 2 3 3 3 2 3 3 3 3 2 3 3 3 4 4 4 4 5 6 11 12 13 12 11 9 9 10 11 12 12 12 11 12 12 12 12 11 11 11 12 14 15 16 17 17 17 17
11 11 11 10 10 10 10 9 10 9 9 9 9 10 9 10 10 9 7 2 1 3 7 7 4 3 3 5 3 3 2 2 2 4 2 0 0 1 1 2 3 2 2 2 2 3 2 2 2 3 3 3 3 3 3 4 5 9 11 11 11 11 10 10 10 12 13 12 12 12 13 13 13 12 12 11 11 12 12 13 14 15 16 17 17
11 11 9 9 11 11 10 10 10 11 11 11 11 11 10 9 9 8 7 6 5 6 5 6 2 9 5 3 2 2 2 6 5 2 1 2 2 2 1 2 2 2 0 2 2 2 1 1 1 1 1 2 2 2 2 2 4 5 7 8 9 9 10 10 11 13 13 13 14 14 14 14 14 13 13 13 13 13 13 13 14 14 15 16 17
10 12 11 12 11 10 10 10 10 11 10 10 11 12 12 11 11 9 11 10 10 4 5 4 7 4 3 6 2 1 4 2 3 2 3 3 4 3 2 2 2 2 1 1 1 1 0 0 1 1 0 1 1 1 1 1 1 2 3 5 7 6 7 8 10 11 12 13 14 14 14 14 14 14 14 14 14 14 14 14 14 14 14 15 16
10 11 11 10 11 11 10 11 10 10 10 10 9 9 10 10 12 12 12 10 7 7 6 3 2 2 4 2 1 2 5 2 2 3 2 1 1 3 3 2 1 2 2 2 1 1 0 1 1 1 1 1 1 1 1 1 1 2 2 3 6 5 5 7 8 9 11 12 13 14 14 14 14 14 15 15 15 15 15 15 14 15 15 16 16
12 12 11 10 10 10 11 10 10 10 9 9 10 11 11 12 9 10 10 8 6 9 10 7 3 2 1 1 1 1 2 7 4 3 2 2 3 4 4 3 2 3 3 3 2 2 1 2 2 2 1 1 0 1 1 1 1 2 5 5 5 5 5 7 8 9 11 13 13 13 13 14 14 14 15 15 15 15 15 15 15 15 15 16 17
10 11 11 11 11 11 11 10 11 10 10 10 11 10 8 7 9 9 7 7 8 8 10 8 11 6 4 3 2 2 2 3 3 6 3 4 4 1 2 3 3 4 5 4 3 2 2 2 2 2 1 0 0 0 0 0 0 1 1 4 4 5 5 6 8 10 12 13 13 13 13 14 14 14 14 14 15 15 15 15 15 15 15 15 16
9 10 11 12 12 11 12 11 11 11 10 9 9 10 12 12 11 11 11 9 9 8 7 9 9 8 7 2 2 2 2 3 1 2 4 5 3 5 4 1 2 4 4 3 2 2 2 3 3 3 2 1 1 1 1 1 1 1 1 3 4 5 5 6 9 11 13 13 13 13 14 14 14 14 14 15 14 15 15 16 16 16 16 16 16
9 10 9 10 11 11 11 13 13 11 11 12 11 11 11 11 12 12 11 12 8 8 9 8 9 7 9 8 7 3 2 2 1 3 2 1 4 5 4 6 6 2 1 2 2 2 3 3 4 3 2 1 1 1 1 1 1 1 1 3 3 3 4 6 10 13 14 14 13 14 14 15 15 15 15 15 15 15 15 15 16 17 17 17 17
8 9 10 11 11 12 11 11 11 12 11 12 13 12 12 12 11 11 12 13 10 10 9 8 8 7 8 8 11 12 12 9 9 6 6 5 2 3 2 4 3 2 3 1 2 4 4 4 4 3 2 2 2 2 2 2 2 2 3 3 2 3 4 8 13 15 15 14 14 14 15 15 16 16 16 16 16 16 16 16 17 17 18 18 18
9 9 11 11 11 9 11 10 10 10 11 10 10 10 10 10 10 11 10 10 10 10 9 10 11 7 9 8 8 9 7 8 9 9 9 7 9 6 5 2 2 5 1 2 2 3 2 3 4 3 2 2 2 2 2 2 2 2 2 2 3 3 6 11 14 15 15 15 14 14 15 16 16 17 17 17 17 17 18 18 18 18 19 19 19
10 11 11 13 11 10 11 12 11 11 10 10 10 11 10 11 10 11 10 12 11 11 10 14 12 11 10 9 7 8 9 3 6 8 6 5 6 4 2 2 3 1 1 2 1 1 1 3 3 3 2 2 2 2 2 2 1 1 1 1 1 3 8 11 14 15 15 15 15 14 15 16 16 17 17 18 18 18 18 18 19 19 19 19 20
10 13 10 10 10 12 12 10 10 10 12 13 12 11 11 9 10 10 12 9 8 12 10 11 9 11 7 8 7 7 6 4 6 7 8 8 5 8 6 2 1 1 0 1 2 1 2 1 2 2 2 1 1 1 1 1 1 2 3 1 2 5 9 12 15 15 14 14 14 14 15 15 16 16 17 17 17 17 18 18 19 19 19 20 20
8 6 7 11 11 9 10 10 11 11 11 11 11 9 9 9 9 10 9 8 10 8 9 11 10 12 10 8 8 6 6 5 6 7 7 9 11 8 9 6 3 3 3 3 2 7 2 3 2 2 2 2 2 3 3 3 3 5 4 1 3 5 9 13 15 14 14 14 14 14 15 15 16 16 16 16 16 17 17 18 18 19 19 20 20
7 8 10 10 11 11 11 11 11 10 9 10 9 9 9 10 9 9 11 7 10 13 10 11 11 12 11 7 6 7 5 6 6 6 7 6 6 7 8 8 6 4 3 3 4 4 5 4 1 1 2 2 2 2 3 4 4 4 1 3 3 4 8 12 14 14 14 14 14 15 16 16 16 16 16 16 16 17 17 18 18 18 19 19 20
6 6 7 7 8 9 9 9 10 10 10 10 10 9 9 10 10 10 11 10 9 12 9 11 10 10 8 11 8 7 7 5 4 5 5 4 4 5 7 10 8 6 3 3 3 4 4 6 4 2 2 3 3 3 4 4 3 2 3 4 4 5 8 13 14 14 14 15 15 16 17 17 17 17 17 17 17 17 18 18 19 19 19 20 21
8 7 8 8 9 11 9 9 9 8 9 8 8 8 8 9 9 9 8 8 10 8 10 9 9 8 8 7 7 6 6 7 6 5 6 6 5 6 5 3 5 9 6 6 5 4 3 4 3 4 3 4 4 4 4 4 4 5 5 5 5 5 10 13 14 14 15 15 16 17 18 18 18 18 18 18 18 19 19 19 20 21 21 21 22
9 9 10 9 10 10 10 9 8 9 8 9 9 9 9 9 9 9 8 9 9 10 8 9 8 8 10 10 8 7 6 7 6 6 5 6 5 5 4 4 3 5 6 4 2 1 3 4 4 2 5 5 5 4 3 3 4 4 5 6 6 8 13 11 12 14 15 16 16 17 17 18 18 18 17 18 18 19 20 21 21 22 23 23 23
10 9 10 11 11 11 10 11 10 9 9 9 9 9 9 10 9 9 9 10 11 11 10 8 7 9 10 11 10 8 8 7 7 7 7 6 5 5 5 5 4 3 4 5 7 5 1 1 2 3 3 5 7 6 5 4 3 6 6 6 7 10 8 7 10 13 14 16 16 17 17 18 18 18 18 18 18 19 20 21 21 22 22 22 23
9 11 12 12 12 13 13 14 14 11 11 11 10 10 10 11 9 10 8 11 12 10 9 10 9 10 10 11 10 9 9 10 8 7 7 8 7 5 5 5 5 5 7 7 7 5 2 1 1 2 1 3 4 1 2 3 4 4 6 7 8 7 7 6 6 10 13 16 17 18 18 19 19 19 18 18 19 20 21 22 22 22 22 22 23
10 11 11 10 10 11 12 13 11 11 12 12 10 11 11 11 11 11 10 11 12 11 10 11 12 9 10 11 11 11 11 10 10 10 9 9 9 8 8 8 7 7 6 7 7 5 5 4 3 1 1 2 6 2 3 5 6 6 8 7 6 6 6 6 6 7 13 16 18 19 19 20 20 20 19 19 19 20 21 22 22 22 22 22 23
9 10 11 12 12 12 11 11 11 12 13 11 10 10 10 12 13 13 14 11 12 12 13 13 12 10 11 12 12 10 8 11 10 9 9 9 8 9 9 8 8 7 8 7 6 7 7 5 5 5 5 5 7 5 3 5 7 8 10 9 7 6 5 6 7 6 11 16 18 19 20 21 21 20 20 20 20 20 21 21 21 21 22 22 23
11 10 12 13 11 11 12 12 12 12 11 11 11 11 12 12 13 13 13 15 16 17 15 12 12 13 14 12 11 12 11 11 11 11 10 10 10 10 10 9 9 9 9 9 8 5 5 5 6 7 6 7 7 7 5 5 7 8 7 8 8 8 8 7 7 8 9 16 18 20 21 21 21 21 21 21 20 20 21 21 21 22 22 23 23
11 9 9 10 10 11 13 15 14 12 12 11 12 12 12 11 12 12 13 13 14 16 17 17 16 13 13 15 12 13 13 12 10 11 11 14 10 10 11 10 10 9 8 8 8 6 6 7 5 5 6 6 6 6 6 6 6 7 8 8 8 8 8 8 7 7 13 19 20 22 22 22 21 21 21 20 20 20 20 22 23 23 23 23 23
10 10 10 9 12 12 14 14 14 13 11 12 13 12 11 11 11 11 10 11 10 11 13 14 14 12 12 14 13 12 14 15 14 12 11 14 12 11 11 10 9 9 10 9 8 8 7 6 6 5 6 7 7 8 7 7 7 7 7 7 8 8 8 7 7 7 6 7 8 10 15 18 19 20 20 19 18 19 21 23 23 23 23 23 24
11 10 11 12 12 13 13 13 13 13 13 13 12 12 12 12 12 12 11 11 11 11 11 13 14 12 10 13 15 13 15 14 14 15 14 13 11 13 12 11 10 10 10 9 9 9 9 7 6 7 6 7 8 7 6 7 8 8 7 6 6 5 5 6 8 7 7 9 14 19 17 15 15 13 15 17 18 20 22 22 22 23 23 23 24
11 11 12 12 12 11 12 13 13 13 14 13 12 12 11 11 12 13 15 14 11 11 11 12 11 10 11 10 10 10 13 13 13 12 14 14 11 11 10 9 11 11 10 9 9 8 8 8 7 7 7 7 6 7 5 6 7 8 8 7 6 5 5 6 8 9 9 10 10 9 10 12 12 14 17 16 18 21 21 21 22 22 23 23 24
9 11 11 11 12 12 11 12 11 11 11 13 12 11 11 12 11 13 16 15 15 11 10 10 9 8 8 9 8 7 13 13 9 12 13 12 12 11 10 11 11 10 8 7 8 8 7 7 7 7 7 7 7 6 7 8 9 7 4 4 5 5 6 8 9 9 10 10 9 8 7 7 8 8 9 10 12 17 17 19 17 20 20 21 23
9 9 9 10 11 12 12 12 11 11 12 11 13 19 15 13 15 14 13 14 15 13 11 10 10 9 10 7 9 10 10 12 13 16 19 20 16 11 12 13 11 10 9 8 8 8 8 9 9 9 8 8 8 8 8 8 6 5 5 5 5 5 6 8 9 7 7 8 8 9 9 7 8 11 10 11 10 10 9 8 8 11 17 22 24
8 9 9 10 10 10 11 12 13 12 11 11 16 19 22 20 15 14 14 14 14 15 12 11 11 11 9 9 8 11 12 13 14 18 20 22 21 19 19 19 17 16 15 11 9 10 10 9 8 8 8 8 8 8 8 7 6 6 4 3 4 6 7 7 8 6 7 6 9 11 11 8 9 9 8 9 10 8 7 8 14 18 21 23 25
7 7 8 9 9 10 9 10 11 12 11 12 17 20 22 23 19 14 12 12 12 13 13 11 10 10 10 9 8 6 9 11 10 13 17 20 20 19 20 22 22 20 18 15 14 9 9 9 9 10 8 8 7 8 8 7 6 5 4 4 6 7 8 9 9 8 4 3 9 12 12 7 6 7 8 9 10 7 7 11 18 21 24 25 26
5 5 9 9 9 9 10 11 12 11 11 12 18 20 22 23 24 18 12 12 12 13 14 14 11 10 10 9 10 9 9 18 14 11 12 14 19 21 20 22 22 22 20 19 15 12 10 8 9 10 9 8 8 9 8 7 5 4 4 6 7 9 10 9 9 9 8 9 10 10 10 5 6 7 8 8 9 9 8 11 17 21 24 26 26
5 6 6 8 9 9 10 11 11 11 11 11 17 19 21 22 23 20 13 13 13 14 14 13 13 12 12 15 15 13 10 14 12 13 14 13 13 14 13 13 13 17 20 21 18 16 13 10 9 9 8 9 8 7 7 7 5 5 5 8 9 10 10 10 8 9 11 7 7 10 9 1 2 9 11 8 7 10 9 13 19 21 24 25 25
6 7 6 7 7 7 9 8 10 10 9 10 15 19 20 22 23 19 13 11 11 9 8 10 11 11 12 13 11 8 8 11 10 15 12 13 14 13 13 13 12 12 13 14 14 12 12 10 9 9 8 10 10 9 7 6 6 7 8 9 11 9 8 7 9 9 7 5 6 4 6 2 6 11 12 9 9 10 8 14 18 20 21 24 25
5 5 6 5 7 8 7 7 9 10 8 10 15 18 20 21 23 14 12 12 11 11 8 9 8 8 8 8 9 11 12 11 18 25 20 14 14 15 15 12 9 11 10 11 14 14 12 10 9 9 9 10 11 9 7 6 7 7 8 9 6 7 8 8 7 4 5 5 5 6 8 9 6 9 14 12 10 12 10 9 14 21 22 23 24
6 6 7 7 6 6 7 7 8 9 7 9 15 18 20 22 18 11 11 10 10 11 9 8 8 8 9 9 10 9 9 10 19 24 24 18 12 15 14 13 11 9 10 8 14 15 12 10 9 9 9 11 13 13 12 15 11 8 3 5 9 7 6 7 6 4 4 2 4 6 7 9 6 8 14 15 13 14 13 12 8 14 20 22 23
9 8 6 7 7 6 7 8 8 9 8 8 14 17 19 21 17 12 10 10 10 10 7 7 6 6 8 16 15 10 10 12 21 24 25 18 13 14 13 12 12 11 10 10 6 11 17 15 15 15 14 14 13 14 15 13 11 9 3 6 5 2 8 7 8 2 4 5 8 5 3 6 7 7 10 14 16 10 6 10 10 10 15 19 22
8 8 7 7 8 6 6 7 7 9 9 7 13 16 19 21 17 11 9 9 10 9 5 5 5 5 7 11 19 15 11 15 24 23 25 18 12 12 10 11 11 13 12 11 10 8 9 11 10 10 11 13 10 3 3 2 5 3 2 4 3 5 8 7 6 5 3 0 2 4 3 6 7 7 7 12 13 15 3 5 7 11 11 13 14
Wind_Direction
171 171 156 164 149 154 159 157 151 148 149 142 141 134 128 131 129 125 121 120 119 114 108 99 97 91 100 104 96 85 83 80 71 57 55 52 30 23 28 44 58 58 61 63 66 66 65 62 67 68 69 71 70 59 56 55 51 52 51 50 51 50 48 44 42 43 43 41 38 38 36 35 34 32 30 29 28 26 24 22 18 16 16 18 17
169 165 166 162 160 156 161 165 162 157 154 147 155 140 140 135 128 128 131 131 128 128 130 119 109 110 107 111 101 97 94 91 82 76 73 60 42 41 24 36 48 55 59 59 61 64 61 58 60 62 69 71 66 57 57 56 52 51 50 46 45 45 44 42 40 40 38 37 37 35 34 33 32 31 29 28 27 25 24 22 20 17 15 13 12
169 165 171 161 162 165 169 161 162 164 155 138 139 136 131 135 143 144 147 142 132 135 141 126 124 116 116 115 110 114 105 95 92 85 74 57 57 43 29 33 45 47 54 60 60 63 60 59 59 64 66 68 60 55 56 56 53 50 48 45 43 44 44 40 37 37 36 35 35 33 31 30 30 30 30 29 27 25 22 21 20 19 16 13 11
168 166 169 165 168 171 166 171 167 154 150 142 136 132 127 117 110 105 119 126 127 130 132 129 123 120 127 119 124 117 112 110 105 88 74 67 61 51 47 36 41 48 48 51 59 62 61 60 61 61 56 53 50 50 54 55 52 50 46 43 40 41 40 38 36 34 33 32 33 31 29 29 29 28 28 28 26 24 22 20 17 16 15 11 8
173 170 168 170 166 167 172 177 162 152 145 140 129 128 128 128 120 128 126 129 133 128 121 115 116 113 116 111 122 113 112 119 112 107 101 105 91 79 68 56 54 46 45 46 47 58 61 60 57 55 51 48 46 49 50 51 52 48 45 42 42 39 38 36 35 33 33 31 31 30 28 27 27 26 26 24 22 21 20 18 15 11 9 6 5
167 170 169 167 170 176 172 166 160 152 143 146 143 146 141 142 144 149 149 158 156 144 149 136 110 105 103 104 106 108 120 122 121 117 131 116 111 89 82 75 66 66 55 47 43 53 55 55 54 52 49 45 44 46 49 49 49 46 44 41 44 43 40 38 36 35 33 31 31 29 27 26 25 24 24 22 20 17 17 15 12 11 8 6 4
174 168 171 169 170 173 176 167 153 152 150 155 143 142 145 152 158 154 146 153 154 150 157 137 140 138 133 147 139 132 140 132 134 132 130 123 110 90 84 81 78 82 68 70 46 48 51 52 50 47 45 41 41 41 43 46 45 45 41 41 44 46 42 39 40 40 37 35 32 29 28 25 23 20 19 18 15 12 10 8 6 5 3 1 359
176 175 170 176 174 175 172 154 157 153 149 146 146 151 154 149 165 163 152 168 167 161 148 142 139 132 142 150 147 157 146 143 136 129 126 125 97 95 85 83 78 76 72 69 65 49 51 50 46 42 38 34 33 35 35 39 38 38 38 38 39 44 39 39 42 43 42 39 36 32 28 25 20 17 14 13 11 9 6 4 2 360 358 356 355
179 176 172 173 176 173 162 158 156 154 151 149 154 152 155 154 161 187 218 159 173 156 154 154 138 130 134 136 148 160 154 140 130 123 139 107 110 106 100 87 89 88 78 77 71 71 54 52 47 41 32 30 28 30 31 32 31 31 33 34 37 40 39 39 42 43 44 43 41 38 32 25 19 14 12 9 7 4 2 1 358 357 355 353 352
174 175 178 177 174 166 157 159 157 152 147 153 155 150 155 166 163 186 186 172 177 170 163 153 138 134 124 121 134 157 138 133 117 120 135 128 125 114 105 111 98 91 88 82 80 72 69 56 52 44 33 27 27 26 27 30 26 23 23 28 32 35 38 40 40 41 43 42 43 42 35 26 18 12 7 5 4 2 1 358 356 355 353 351 349
175 175 177 173 170 166 162 162 158 154 149 153 154 163 164 172 177 171 192 222 200 181 148 145 132 118 105 92 114 118 130 109 100 119 119 132 132 128 135 107 104 93 88 82 78 75 65 56 47 42 35 27 27 25 25 28 20 15 17 21 28 32 38 39 39 41 39 38 39 38 36 32 22 13 6 5 1 359 357 355 354 352 351 348 347
177 177 177 173 171 168 163 161 160 156 158 160 170 177 175 169 185 175 169 183 215 167 142 139 105 99 90 80 63 95 129 103 81 90 105 128 135 149 123 123 106 98 87 86 84 76 69 59 48 41 37 29 28 25 23 26 13 8 16 17 24 29 35 35 38 41 37 33 29 27 28 33 29 20 10 2 357 352 350 351 351 349 348 346 343
179 174 181 169 170 160 158 165 166 167 169 178 170 165 167 171 153 171 168 169 187 173 177 172 142 103 89 80 83 44 82 151 72 78 72 87 126 135 124 116 104 94 86 84 79 70 69 57 45 34 28 20 23 21 19 21 11 6 12 14 19 24 26 29 31 37 31 28 22 18 18 23 26 22 12 3 355 350 348 348 347 346 344 343 341
177 178 174 173 166 167 170 170 168 175 169 149 155 160 163 165 161 166 211 191 188 179 176 163 186 174 154 153 96 103 85 243 242 345 60 48 64 112 129 118 109 103 98 87 74 73 67 59 47 36 29 23 19 16 12 12 12 5 9 11 14 16 26 31 29 32 26 20 17 14 13 13 13 10 7 3 356 352 349 346 345 344 343 341 340
177 177 179 175 172 169 175 167 174 162 159 166 166 173 176 174 178 178 167 224 228 175 193 234 140 128 116 120 169 166 181 237 240 247 261 248 308 151 129 113 104 87 86 96 87 72 63 50 44 36 30 23 21 16 19 13 7 4 8 8 5 8 18 25 24 22 17 14 12 8 6 6 3 1 358 355 351 349 347 345 343 341 340 338 338
179 177 176 178 175 177 170 174 174 175 170 163 173 177 173 179 183 196 171 159 199 196 213 212 207 148 173 225 125 186 181 205 191 165 176 245 228 184 173 134 112 102 138 130 100 73 65 59 47 48 30 23 20 25 24 27 359 1 5 355 346 10 12 16 19 14 10 7 4 1 359 358 357 353 349 348 346 345 344 342 340 340 338 337 336
175 182 183 181 181 179 175 175 172 177 174 173 175 182 182 183 176 176 189 187 182 183 191 196 230 301 133 127 112 227 228 113 140 176 162 184 216 217 192 173 153 146 176 158 118 86 55 346 355 352 349 9 29 29 37 36 8 6 355 340 332 25 15 16 16 10 6 2 358 355 353 351 350 346 344 342 341 341 340 339 339 338 337 336 335
185 185 189 182 181 180 174 173 177 176 183 180 173 169 183 179 189 189 194 224 185 159 175 200 256 224 271 343 295 184 157 183 174 187 145 231 209 216 234 202 169 190 199 190 189 132 196 308 286 293 306 333 14 33 40 39 17 356 357 337 349 20 30 20 10 7 360 356 352 350 348 346 344 342 339 337 337 337 337 336 336 335 335 334 333
187 185 185 182 176 177 179 179 177 178 177 175 179 185 180 188 178 194 201 192 165 181 186 172 138 236 226 283 53 352 103 140 198 79 192 157 210 200 219 204 210 224 211 210 207 195 206 254 255 261 272 273 14 43 51 52 6 348 335 328 344 10 19 15 5 357 352 348 344 343 343 340 339 337 335 334 334 334 334 331 332 332 332 333 332
183 185 184 181 179 180 179 176 177 181 177 187 184 179 176 182 189 195 193 197 197 197 180 169 178 173 164 159 78 74 34 27 100 170 151 167 177 193 269 232 232 218 212 215 209 201 250 251 266 272 258 208 162 129 94 107 159 299 309 319 342 2 9 4 356 350 346 340 337 335 335 334 333 332 332 332 332 331 330 328 328 328 328 328 328
192 185 187 185 186 181 176 178 178 179 183 185 187 178 182 176 179 186 196 198 204 211 171 185 202 166 150 151 117 83 54 33 66 57 161 178 204 171 181 165 271 235 212 230 218 212 242 263 276 272 263 203 162 152 160 159 195 222 286 318 341 353 354 346 346 343 335 331 328 328 328 329 329 329 329 330 329 329 328 325 325 325 325 324 323
192 191 188 190 188 183 184 184 184 178 182 187 180 179 184 187 188 190 189 198 195 203 200 190 199 169 185 149 154 137 108 126 106 126 29 308 203 184 180 176 207 180 151 190 214 228 226 258 262 257 245 211 155 154 152 173 192 255 280 297 312 329 330 331 339 335 329 324 324 324 325 326 326 326 327 327 326 325 324 323 322 322 321 320 320
185 193 193 191 193 192 188 189 186 187 187 183 188 183 182 183 184 187 194 195 191 195 207 196 188 178 185 179 177 174 173 175 181 188 168 159 156 230 188 199 203 231 161 162 233 236 242 243 237 227 212 191 162 161 168 173 197 211 250 280 296 307 316 335 335 328 322 319 321 322 322 324 325 325 324 324 324 322 321 322 321 320 319 318 319
188 189 197 191 192 191 191 189 193 189 193 191 184 184 181 180 182 188 191 194 192 192 198 189 187 186 196 198 197 192 190 181 178 170 174 187 178 182 168 149 280 240 297 302 232 237 229 218 225 219 197 179 167 162 160 180 175 213 245 296 296 308 333 333 327 320 316 317 318 319 321 323 323 322 322 321 321 321 321 321 320 319 318 317 318
197 197 197 188 188 184 185 193 193 196 194 184 192 188 183 186 184 185 188 190 192 185 192 199 183 186 193 201 202 198 199 161 145 171 188 135 172 147 128 163 160 147 27 22 311 292 234 228 208 219 196 192 152 154 151 158 157 152 226 296 307 338 332 323 317 313 312 314 316 317 320 320 319 319 319 318 318 319 319 319 318 318 317 316 316
191 206 190 185 192 201 197 196 197 194 193 195 193 192 187 185 183 186 192 194 181 198 204 203 197 208 194 185 201 198 193 164 167 157 159 151 174 187 144 137 124 181 8 280 271 270 167 228 214 206 203 186 140 130 135 133 147 197 128 121 335 328 318 312 309 308 308 310 310 312 313 313 311 312 312 313 314 315 315 316 316 315 315 315 315
214 208 186 196 200 197 200 199 199 197 196 195 196 186 185 183 189 192 190 187 192 186 202 190 194 195 196 195 192 200 188 174 172 179 168 181 167 169 153 156 171 168 195 217 248 245 182 176 174 212 201 168 154 152 158 162 164 160 138 235 286 296 299 304 303 303 303 305 307 308 306 305 303 305 308 309 310 311 313 314 313 313 312 312 312
218 205 209 199 198 200 200 203 199 198 197 196 189 186 183 187 186 189 195 175 188 189 195 188 197 195 195 188 188 203 180 178 190 174 182 177 164 155 170 177 180 199 155 199 199 231 194 181 157 236 191 164 152 158 143 150 155 151 142 268 279 283 292 295 296 298 301 304 304 303 302 301 301 303 308 310 311 312 312 312 311 309 309 308 309
208 211 209 207 205 205 203 200 198 198 195 195 194 191 184 193 192 188 196 182 187 193 186 192 194 183 190 188 194 181 184 175 179 177 168 162 172 169 181 181 175 193 178 219 224 186 179 204 157 180 179 165 153 151 149 160 161 193 250 258 268 280 281 285 289 295 299 302 304 303 303 303 304 306 309 312 313 314 313 312 311 309 307 308 307
187 180 181 191 202 206 207 204 203 196 198 190 194 191 187 200 199 200 195 172 191 190 197 192 189 179 184 184 192 187 168 179 183 167 168 169 161 174 181 178 171 182 181 194 230 191 147 193 206 140 180 161 146 150 156 182 211 234 248 258 260 262 270 281 289 297 302 307 308 307 306 307 307 309 311 315 316 315 314 314 312 310 308 307 307
192 184 183 184 187 195 201 204 199 199 191 195 188 192 192 198 197 200 185 185 192 196 193 188 188 177 184 187 184 187 166 178 167 169 171 165 171 164 171 155 185 184 158 168 222 226 170 179 169 135 143 157 158 160 205 232 234 247 261 268 270 276 288 291 295 300 304 306 304 303 302 302 303 306 309 313 312 313 313 313 311 309 308 308 308
194 185 192 195 191 190 192 196 196 192 194 193 189 192 191 203 194 196 190 182 193 195 189 192 181 187 181 189 186 179 168 171 175 174 171 172 163 170 168 171 170 161 153 174 202 208 127 193 131 142 147 162 175 193 206 220 213 249 271 277 279 283 286 286 285 289 295 298 299 300 300 301 303 306 306 309 308 309 308 305 303 303 304 304 304
181 189 193 195 194 197 196 199 198 191 190 189 188 189 195 199 200 198 183 189 191 195 179 187 189 185 190 187 182 181 166 176 176 169 171 169 167 170 168 169 174 170 171 179 191 208 124 127 122 147 51 341 291 153 289 285 284 274 268 269 275 279 280 281 285 283 293 299 300 301 302 303 303 302 304 305 305 303 303 301 301 303 303 303 302
190 197 195 191 193 195 200 204 204 202 202 201 192 190 192 193 199 203 201 189 196 192 183 188 188 188 184 186 185 178 176 178 171 178 172 167 173 172 178 179 180 177 186 168 201 185 200 146 191 150 185 210 263 271 282 287 281 282 280 278 266 265 279 288 294 299 300 301 302 302 302 300 298 298 300 300 299 298 297 296 298 299 299 299 299
194 199 195 191 190 192 197 197 198 201 201 198 195 196 199 196 199 203 204 194 194 189 190 193 184 179 184 192 186 169 163 178 180 175 168 175 173 176 176 178 177 179 180 190 162 192 200 196 164 181 193 203 228 257 252 264 281 291 293 292 292 291 285 290 292 290 291 295 297 297 294 292 291 290 290 292 293 292 290 291 292 292 292 294 296
202 205 200 199 194 194 199 200 200 200 197 199 197 200 201 197 202 205 205 205 205 205 200 186 180 184 190 181 184 174 172 176 175 175 178 176 178 179 173 176 179 176 180 181 197 172 179 189 196 187 187 199 229 245 251 265 273 279 278 288 294 293 293 291 285 284 286 289 288 286 284 281 281 283 285 287 288 287 287 288 288 290 291 292 293
213 203 206 199 197 196 202 203 202 202 201 196 199 202 202 202 204 205 208 210 212 213 210 202 193 185 184 192 175 167 173 177 174 179 179 180 178 175 179 176 178 175 168 179 185 178 173 194 189 177 175 196 218 238 242 251 256 248 248 252 264 269 272 270 272 272 272 273 274 274 275 275 277 279 282 283 284 285 286 288 290 293 293 293 294
216 212 204 201 206 205 205 203 202 201 196 197 201 202 200 199 201 204 205 204 207 213 219 218 206 194 193 194 185 173 175 180 183 178 172 178 175 178 177 176 172 167 171 177 178 180 186 197 188 194 200 210 220 229 222 223 236 249 246 240 235 242 251 260 254 250 245 247 255 258 260 262 264 268 274 276 281 285 285 286 289 292 293 294 295
221 215 212 211 213 212 211 205 204 200 201 200 199 198 197 197 199 199 200 201 203 203 209 216 218 213 201 197 196 187 187 186 178 177 175 174 174 179 179 173 169 166 170 174 177 179 186 189 201 212 218 219 217 229 209 207 225 237 252 258 257 240 241 251 270 266 259 256 254 256 259 263 270 274 276 277 281 281 282 285 288 290 292 293 291
225 223 216 215 216 214 214 210 209 205 206 205 202 199 196 193 197 204 205 206 203 205 205 207 208 212 211 203 198 186 189 190 182 175 169 175 168 175 175 165 169 168 172 171 171 177 182 187 194 200 212 218 221 222 220 226 233 232 226 233 251 269 274 269 261 269 266 257 258 252 247 253 260 262 265 269 270 272 276 281 283 285 286 286 286
231 229 225 219 218 218 218 215 210 205 208 209 205 198 194 194 195 202 205 206 207 204 202 202 200 201 206 210 208 189 199 205 199 188 184 168 162 166 171 166 170 170 168 167 172 173 179 180 193 202 207 215 218 206 210 213 215 218 211 229 254 265 274 276 267 252 253 255 256 248 248 252 273 272 278 272 265 269 271 270 275 279 280 281 284
240 235 231 226 222 220 217 217 213 211 216 214 210 203 196 196 199 204 204 207 206 204 200 198 197 195 198 200 207 195 186 188 191 192 192 191 192 179 163 166 170 166 172 167 177 181 177 183 195 190 198 211 209 207 213 217 215 221 227 237 263 281 282 275 273 251 239 245 261 278 275 269 273 276 273 266 261 261 268 271 269 281 286 286 285
246 239 230 231 227 223 220 216 214 217 218 217 208 201 202 197 196 202 203 206 204 204 200 193 194 187 184 185 186 190 184 186 191 190 189 191 188 188 185 180 173 170 172 175 184 179 181 189 185 192 204 207 208 204 214 215 214 218 229 247 276 278 270 271 274 268 230 249 285 290 285 263 262 268 265 263 266 260 266 274 286 287 287 289 289
263 252 245 240 236 229 228 226 224 223 224 217 206 205 202 201 197 200 204 206 203 206 204 198 190 181 177 173 179 172 187 184 176 188 192 193 189 184 182 184 187 188 183 170 167 174 188 179 187 200 194 204 199 203 212 205 210 214 228 252 262 260 259 259 262 263 256 321 296 293 283 266 235 260 270 263 263 259 262 280 289 291 290 289 288
292 269 255 249 244 238 231 231 230 226 229 209 208 205 204 203 200 196 208 206 204 207 205 204 196 181 174 166 171 184 183 185 182 182 179 188 190 187 185 186 190 190 194 196 187 179 171 175 186 198 197 190 196 212 206 203 200 211 249 258 253 251 255 259 261 272 281 302 298 287 287 280 265 275 277 262 266 273 277 279 281 286 289 289 289
279 271 263 254 251 244 237 236 238 236 232 221 211 208 206 204 203 198 209 205 209 208 205 200 200 196 189 191 193 194 179 183 180 174 175 177 179 183 185 186 189 195 198 200 196 189 181 184 189 194 194 188 207 206 199 191 204 227 241 250 252 258 257 259 276 283 289 296 287 301 289 237 288 310 288 281 270 275 275 276 276 281 287 288 288
305 288 274 267 255 251 251 243 243 241 237 222 215 211 208 206 206 201 208 209 211 210 202 199 197 192 191 196 192 176 163 183 180 175 165 174 178 182 185 187 186 188 195 197 197 193 191 191 194 196 198 207 216 219 208 214 223 235 237 244 255 261 271 283 281 273 281 273 273 283 277 318 332 307 292 293 293 281 274 281 281 279 284 288 288
298 288 281 270 266 259 252 251 250 249 242 223 220 216 212 209 206 205 208 208 210 208 204 204 201 195 188 185 176 175 181 185 185 185 184 175 178 182 183 185 179 189 197 201 198 199 196 197 194 195 198 205 215 215 216 220 232 237 248 249 254 273 282 278 266 265 265 267 251 270 281 297 317 303 299 301 298 293 292 279 280 280 281 285 287
306 298 292 283 280 272 262 253 249 252 248 227 222 218 214 210 206 209 207 208 212 210 207 195 193 194 194 186 184 183 179 182 185 187 187 178 178 181 181 182 182 180 193 187 199 197 186 182 181 191 201 215 226 227 227 232 227 227 233 264 266 272 279 276 269 239 266 270 268 266 281 292 306 314 304 303 304 296 295 286 277 278 279 280 283
313 306 303 296 284 275 267 260 248 252 251 232 227 222 217 214 208 209 206 206 209 211 209 196 191 192 192 194 191 183 182 182 187 189 187 180 181 181 180 175 178 187 195 193 176 206 207 211 217 222 224 224 224 231 239 250 260 269 258 245 262 268 264 259 272 261 298 285 275 255 250 269 310 310 305 304 303 275 264 283 286 280 285 290 288
289 298 299 291 284 271 260 258 261 255 254 240 228 227 222 216 213 211 205 202 206 208 190 192 191 182 193 195 194 191 181 181 189 191 188 181 181 182 173 161 179 191 197 182 183 176 190 203 210 212 217 222 231 235 67 56 247 264 275 255 254 244 256 255 265 298 320 278 164 89 334 296 316 303 326 324 315 299 227 228 304 302 292 289 290